Location: Newark
(33.6439°N, 114.9881°W)
Time: 02:17:54
(UTC+00:00)

Transit 2A Rocket - All Passes

Search period start: 17 July 2019 00:00
Search period end: 27 July 2019 00:00
Orbit: 588 x 915 km, 66.7° (Epoch: 16 July)

Date Brightness Start Highest point End Pass type
(mag) Time Alt. Az. Time Alt. Az. Time Alt. Az.
17 Jul - 09:41:35 10° SE 09:44:07 13° ESE 09:46:38 10° ENE visible
17 Jul - 11:20:01 10° SSW 11:26:07 80° WNW 11:32:00 10° NNE visible
17 Jul - 13:07:04 10° WNW 13:09:30 12° NW 13:11:54 10° NNW daylight
17 Jul - 20:09:20 10° N 20:13:32 29° NE 20:17:27 10° ESE daylight
17 Jul - 21:52:17 10° NW 21:55:51 22° WSW 21:59:14 10° SSW daylight
18 Jul - 10:37:39 10° S 10:43:38 60° ESE 10:49:25 10° NE visible
18 Jul - 12:22:11 10° W 12:26:35 21° NW 12:30:52 10° N daylight
18 Jul - 19:27:41 10° N 19:30:44 17° NE 19:33:38 10° E daylight
18 Jul - 21:09:06 10° NW 21:13:35 44° WSW 21:17:45 10° S daylight
19 Jul - 09:55:51 10° S 10:01:15 34° ESE 10:06:30 10° NE visible
19 Jul - 11:38:23 10° WSW 11:43:49 34° WNW 11:49:03 10° N visible
19 Jul - 20:26:25 10° NNW 20:31:11 88° ENE 20:35:34 10° SSE daylight
20 Jul - 09:14:47 10° SSE 09:18:57 19° ESE 09:23:02 10° ENE visible
20 Jul - 10:55:12 10° SW 11:01:11 56° WNW 11:06:54 10° NNE visible
20 Jul - 19:44:04 10° NNW 19:48:38 44° ENE 19:52:51 10° SE daylight
20 Jul - 21:28:19 10° WNW 21:30:36 14° WSW 21:32:49 10° SW daylight
21 Jul - 10:12:31 10° SSW 10:18:38 85° ESE 10:24:29 10° NNE visible
21 Jul - 11:58:36 10° W 12:01:51 15° NW 12:05:02 10° NNW visible
21 Jul - 19:02:04 10° N 19:05:56 24° NE 19:09:32 10° ESE daylight
21 Jul - 20:44:28 10° NW 20:48:24 28° WSW 20:52:07 10° SSW daylight
22 Jul - 09:30:21 10° S 09:36:11 49° ESE 09:41:49 10° NE visible
22 Jul - 11:14:12 10° WSW 11:18:59 24° NW 11:23:37 10° N visible
22 Jul - 18:20:43 10° NNE 18:23:03 13° NE 18:25:19 10° ENE daylight
22 Jul - 20:01:30 10° NW 20:06:06 57° WSW 20:10:21 10° S daylight
23 Jul - 08:48:45 10° SSE 08:53:49 28° ESE 08:58:44 10° NE visible
23 Jul - 10:30:38 10° SW 10:36:16 40° WNW 10:41:40 10° N visible
23 Jul - 19:18:56 10° NNW 19:23:38 70° ENE 19:27:59 10° SSE daylight
24 Jul - 08:08:07 10° SE 08:11:33 16° ESE 08:14:56 10° ENE visible
24 Jul - 09:47:37 10° SW 09:53:40 68° WNW 09:59:26 10° NNE visible
24 Jul - 11:36:24 10° NW 11:37:11 10° NW 11:37:57 10° NW visible
24 Jul - 18:36:42 10° N 18:41:03 35° ENE 18:45:05 10° SE daylight
24 Jul - 20:20:11 10° WNW 20:23:11 17° WSW 20:26:04 10° SSW daylight
25 Jul - 09:05:06 10° SSW 09:11:09 71° ESE 09:16:57 10° NNE visible
25 Jul - 10:50:22 10° W 10:54:13 17° NW 10:57:58 10° N visible
25 Jul - 17:54:52 10° N 17:58:17 19° NE 18:01:31 10° E daylight
25 Jul - 19:36:45 10° NW 19:40:57 35° WSW 19:44:54 10° S daylight
26 Jul - 08:23:06 10° S 08:28:44 40° ESE 08:34:09 10° NE visible
26 Jul - 10:06:17 10° WSW 10:11:25 28° NW 10:16:19 10° N visible
26 Jul - 17:14:11 10° NNE 17:15:22 11° NE 17:16:31 10° ENE daylight
26 Jul - 18:53:56 10° NNW 18:58:35 74° WSW 19:02:54 10° SSE daylight
